Flag for Japan Weather past 2 weeks in Okayama, Japan

Now
50 °F

Overcast.


Feels Like: 46 °F
Forecast: 39 / 53 °F
Wind: 12 mph from West

Location: Takamatsu

Current Time: Jan 27, 2015 at 4:04:43 AM

Latest Report: Jan 27, 2015 at 3:00 AM


Visibility: 6 mi

Pressure: 29.96 "Hg

Humidity: 88%

Dew point: 47 °F

Location of OkayamaLocation

Historic Weather in Okayama — Graph

°F

Okayama temperature yesterday

Maximum temperature yesterday: 49 °F (at 11:00 AM)
Minimum temperature yesterday: 42 °F (at 1:00 AM)
Average temperature yesterday: 46 °F

Past Weeks' High & Low Weather Summary

 TemperatureHumidityPressure
High53 °F (Jan 24, 2:00 PM)96% (Jan 15, 8:00 AM)30.56 "Hg (Jan 15, 8:00 AM)
Low32 °F (Jan 24, 7:00 AM)37% (Jan 18, 1:00 PM)29.72 "Hg (Jan 22, 6:00 PM)
Average44 °F66%30.19 "Hg
* Reported Jan 12 2:00 AM — Jan 27 2:00 AM, Okayama, Weather by CustomWeather, © 2014

Note: Actual official high and low records may vary slightly from our data, if they occured in-between our weather recording intervals... More about our weather records

Advertising

Okayama weather history for previous 24 hours

 ConditionsComfort  
Time TempWeatherWind HumidityBarometerVisibility
2:00 AM
Jan 27
50 °FCool.10 mph90%29.96 "HgN/A
1:00 AM49 °FCool.8 mph93%29.96 "HgN/A
12:00 AM48 °FCool.13 mph92%29.97 "HgN/A
11:00 PM
Jan 26
48 °FCool.6 mph93%29.97 "HgN/A
10:00 PM48 °FCool.5 mph94%29.98 "HgN/A
9:00 PM48 °FSprinkles. Overcast.3 mph95%29.99 "Hg2 mi
8:00 PM47 °FCool.6 mph95%30.00 "HgN/A
7:00 PM48 °FCool.1 mph95%29.99 "HgN/A
6:00 PM47 °FSprinkles. Overcast.1 mph94%29.98 "Hg2 mi
5:00 PM48 °FCool.5 mph92%30.00 "HgN/A
4:00 PM47 °FCool.5 mph93%29.96 "HgN/A
3:00 PM47 °FSprinkles. Overcast.2 mph91%30.03 "Hg2 mi
2:00 PM47 °FCool.2 mph91%30.05 "HgN/A
1:00 PM49 °FCool.1 mph85%30.07 "HgN/A
11:00 AM49 °FCool.3 mph80%30.16 "HgN/A
10:00 AM49 °FCool.3 mph84%30.18 "HgN/A
9:00 AM45 °FOvercast.2 mph86%30.21 "Hg5 mi
8:00 AM43 °FQuite cool.1 mph85%30.23 "HgN/A
7:00 AM42 °FQuite cool.2 mph84%30.24 "HgN/A
6:00 AM42 °FOvercast.2 mph85%30.25 "Hg6 mi
5:00 AM43 °FQuite cool.2 mph81%30.26 "HgN/A
4:00 AM42 °FQuite cool.1 mph81%30.27 "HgN/A
Weather by CustomWeather, © 2014

See weather overviewHow to use our weather pages